Miscellaneous Local Product
Issued by NWS North Platte, NE

Home | Current Version | Previous Version | Text Only | Print | Product List | Glossary On
Versions: 1 2 3 4 5 6 7 8 9 10 11 12 13 14 15 16 17 18 19 20 21 22 23 24 25 26 27 28 29 30 31 32 33 34 35 36 37 38 39 40 41 42 43 44 45 46 47 48 49 50
000
AXUS43 KLBF 180210
MISLBF


WESTERN AND NORTH CENTRAL NEBRASKA HOURLY WEATHER ROUNDUP
NATIONAL WEATHER SERVICE NORTH PLATTE NE
900 PM CDT WED SEP 17 2014

***STATIONS NOT REPORTING VARIABLES SUCH AS SKY/WEATHER OR
PRESSURE ARE PROVIDED BY THE NEBRASKA DEPARTMENT OF
ROADS...RAWS...AND APRS NETWORKS...AND ARE NOT UNDER
NATIONAL WEATHER SERVICE QUALITY CONTROL***

...OBSERVATIONS IN AND NEAR THE EASTERN PANHANDLE OF NEBRASKA...

CITY           SKY/WX    TMP DP  RH WIND       PRES   REMARKS
PINE RIDGE     CLEAR     66  54  65 E8        29.93R
CHADRON        PTCLDY    67  52  58 NE3       29.90R
ALLIANCE       MOCLDY    68  51  54 E9        29.94R
SIDNEY         CLOUDY    73  49  42 E6        29.99S
WHITECLAY        N/A     70  52  51 E9          N/A
RUSHVILLE        N/A     71  47  42 E16         N/A
CRESCENT LAKE    N/A     71  54  55 SE3         N/A
LISCO            N/A     77  53  42 E6          N/A
BIG SPRINGS      N/A     76  62  60 CALM        N/A
$$

...OBSERVATIONS IN NORTH CENTRAL NEBRASKA...

CITY           SKY/WX    TMP DP  RH WIND       PRES   REMARKS
VALENTINE      MOCLDY    68  55  63 E8        29.95R
THEDFORD       PTCLDY    69  57  66 E3        29.96R
AINSWORTH      MOCLDY    64  56  76 E8        29.96R
O`NEILL        PTCLDY    67  60  78 E6        29.96R
ORD            CLEAR     66  61  84 E3        29.93R
BROKEN BOW     PTCLDY    65  60  84 CALM      29.94R
SPRINGVIEW       N/A     65  59  81 CALM        N/A
ROSE             N/A     72  64  74 E9          N/A
NEWPORT          N/A     65  58  79 E7          N/A
COMSTOCK         N/A     73  67  82 SE5         N/A
CHAMBERS         N/A     67  58  72 E3          N/A
$$

...OBSERVATIONS IN SOUTHWEST NEBRASKA AND FAR NORTHEAST COLORADO...

CITY           SKY/WX    TMP DP  RH WIND       PRES   REMARKS
WRAY           FAIR      73  56  55 NE7       29.94R
HOLYOKE        FAIR      70  57  64 E7        29.95R
IMPERIAL       CLEAR     73  59  61 E12       29.93R
OGALLALA       CLEAR     71  61  70 E6        29.93R
NORTH PLATTE   CLEAR     63  59  87 E6        29.93R
MCCOOK         PTCLDY    70  61  73 E8        29.92R
LEXINGTON      CLEAR     65  62  87 E7        29.93R
PAXTON           N/A     74  61  64 CALM        N/A
SUTHERLAND       N/A     68  61  77 E5          N/A
BRADY            N/A     68  60  76 CALM        N/A
GOTHENBURG       N/A     72  60  65 E3          N/A
CALLAWAY         N/A     70  62  77 E9          N/A
$$

...SOME WEATHER OBSERVATIONS FROM AROUND THE REGION...

CITY           SKY/WX    TMP DP  RH WIND       PRES   REMARKS
DENVER         MOCLDY    72  41  32 NE5       30.06R
LARAMIE        PTCLDY    59  41  51 S7        30.17S
CHEYENNE       CLEAR     66  43  43 S6        30.10R
SCOTTSBLUFF    MOCLDY    70  49  47 CALM      29.95R
RAPID CITY     CLEAR     68  52  56 E13       29.95R
PIERRE         CLOUDY    65  45  48 E9        29.96R
WINNER         LGT RAIN  68  57  68 E9        29.96R
SIOUX FALLS    PTCLDY    63  56  78 NE3       29.97R
OMAHA          PTCLDY    67  60  78 CALM      29.93R
GRAND ISLAND   PTCLDY    65  62  90 E5        29.94R
KANSAS CITY    CLEAR     68  64  87 E8        29.93R
WICHITA        PTCLDY    82  61  48 NE8       29.83R
HAYS           PTCLDY    75  64  69 E13       29.88R
LIBERAL        CLOUDY    75  57  53 S8        29.92S
GOODLAND       PTCLDY    66  56  70 S9        29.94R
$$



USA.gov is the U.S. government's official web portal to all federal, state and local government web resources and services.